RH
90 88 77 82 95 86 89 64 45 57 66 62 44 56 57 55 54 61 96 92 85 92 92 90 87 91 86 72 69 95 95 91 86 88 96 99 99 94 95 93 89 87 85 86 88 95 95 96 79
82 87 81 94 95 97 85 48 51 46 46 63 67 65 65 66 96 96 98 92 87 92 92 86 90 85 74 54 68 94 93 90 90 91 98 97 98 96 93 90 86 85 89 92 95 96 94 88 83
79 85 94 98 80 80 57 44 38 43 60 58 67 68 73 89 87 91 96 100 94 96 89 86 88 78 73 64 83 93 89 89 90 91 95 91 96 96 94 91 90 90 93 96 96 96 82 75 80
89 93 99 97 80 58 39 33 28 48 48 56 67 80 85 86 82 94 90 100 98 95 87 88 85 75 68 65 83 95 94 97 97 93 89 94 98 94 94 96 96 96 96 96 97 89 75 77 78
86 98 98 93 74 50 33 28 33 41 50 51 68 81 96 91 88 100 98 100 100 92 89 88 83 78 70 73 68 91 99 100 100 95 93 97 96 95 95 94 95 96 96 98 98 84 74 76 79
96 91 97 97 73 50 35 30 46 44 38 36 55 82 95 98 100 100 100 99 99 89 93 89 83 82 73 76 84 74 92 97 98 93 91 96 95 95 95 94 100 99 95 94 94 83 76 73 72
94 94 98 93 64 49 36 32 53 53 45 41 66 90 95 99 99 100 100 100 98 91 93 89 85 81 76 79 89 75 70 82 92 90 92 91 90 93 94 92 96 100 94 84 82 79 76 72 70
87 99 84 91 61 50 37 38 42 50 50 55 60 82 98 97 100 100 100 100 97 94 93 92 88 86 80 75 96 84 63 59 78 90 90 90 89 94 93 89 97 97 75 71 73 74 72 71 70
87 95 92 86 68 41 41 51 53 57 65 79 73 79 83 100 98 100 100 100 100 99 96 93 91 86 80 76 97 92 80 69 55 67 82 82 79 78 73 67 56 57 61 64 65 61 56 57 62
86 96 85 60 70 50 43 48 67 71 93 90 89 92 100 100 100 97 96 95 99 99 100 96 98 85 70 75 91 98 92 87 69 51 47 54 54 52 54 53 52 53 54 55 55 55 55 54 53
91 95 77 68 88 76 47 54 49 74 82 82 71 97 97 94 85 90 92 93 93 97 100 100 98 77 75 66 84 97 99 98 80 69 56 50 47 49 47 45 45 44 46 46 45 45 44 46 56
83 78 88 86 83 70 54 49 57 53 60 73 89 88 91 92 80 69 88 96 98 99 99 100 91 76 79 64 65 92 97 100 89 76 74 63 60 56 54 50 46 45 44 43 42 41 37 52 59
89 87 83 91 84 75 64 66 64 72 82 87 87 88 89 88 85 82 93 96 96 98 100 100 91 80 81 73 62 76 93 100 96 87 80 74 62 64 65 63 55 49 50 51 59 61 61 61 59
89 87 86 88 84 79 71 68 57 67 72 97 89 85 83 86 88 88 92 85 77 90 99 99 98 82 82 78 71 62 80 91 94 93 82 77 69 72 75 72 67 63 63 63 66 68 67 64 59
83 85 86 88 81 80 81 81 89 80 80 98 98 92 90 80 82 79 81 63 44 40 85 86 95 85 88 84 72 66 63 77 88 88 84 80 81 82 76 70 70 68 67 65 65 66 67 67 67
86 92 100 84 83 76 71 96 76 74 70 71 81 96 98 96 83 77 75 57 82 57 76 64 95 93 80 86 79 69 65 68 71 70 74 82 83 82 79 74 69 70 72 68 65 67 71 72 70
87 99 100 94 82 78 77 90 76 71 71 69 69 72 86 99 99 91 83 76 79 67 50 55 88 99 86 90 81 75 68 63 69 70 73 74 74 75 75 70 68 70 71 67 65 68 70 72 72
96 96 94 97 86 74 81 84 72 70 77 73 73 63 64 72 91 98 95 80 63 66 77 76 95 80 94 83 88 82 81 72 73 73 73 74 74 71 69 67 68 70 70 69 70 70 72 74 75
76 84 88 86 85 81 84 77 71 74 76 80 69 62 55 56 62 76 99 92 79 70 70 72 73 60 77 99 100 90 90 82 78 76 73 73 73 72 66 68 71 72 73 71 72 72 75 76 78
72 82 83 85 85 80 86 74 67 69 76 71 72 66 59 54 51 49 65 94 99 90 82 71 74 73 76 87 80 82 77 81 74 72 72 72 70 71 67 67 72 72 74 74 76 76 77 83 81
61 70 70 83 88 78 88 87 83 75 77 68 66 66 58 56 53 50 51 58 80 89 65 64 75 80 73 70 71 79 90 79 79 81 76 70 70 70 68 68 71 74 76 76 80 85 82 66 78
65 56 58 88 86 91 73 72 83 74 74 69 64 69 64 58 56 54 48 50 52 64 74 76 70 78 75 67 68 65 66 71 72 73 68 68 75 77 75 77 78 79 70 70 73 78 77 70 69
63 63 68 85 81 85 88 85 65 69 75 64 57 58 66 59 57 54 53 41 40 44 48 71 82 83 85 88 66 64 64 82 81 81 82 88 90 87 87 89 91 94 94 88 82 84 75 70 86
60 76 84 90 83 98 82 84 74 70 59 52 48 52 58 53 54 54 45 41 38 38 42 50 76 82 84 65 80 84 78 84 87 89 90 91 98 98 97 100 100 100 95 98 92 73 70 76 85
70 74 96 98 99 93 75 92 69 53 49 45 44 47 50 47 46 53 55 53 42 37 37 44 55 75 81 91 94 92 89 94 93 93 95 96 100 100 100 99 100 95 86 86 89 80 73 72 75
82 77 89 88 97 94 80 95 74 48 40 42 43 38 37 39 42 45 52 50 43 38 38 42 47 57 72 80 86 93 100 99 98 99 96 93 95 100 100 97 95 85 79 73 55 48 51 55 59
84 97 74 90 80 92 86 71 44 37 38 35 39 39 39 39 49 53 54 49 45 42 37 38 45 52 67 88 98 99 99 99 98 99 100 99 99 99 94 87 79 71 59 48 50 48 49 49 55
77 75 96 99 96 95 76 68 56 34 34 34 41 41 38 42 56 65 61 52 53 48 46 47 47 48 58 79 89 90 85 83 86 92 95 99 100 94 87 87 79 68 62 54 50 49 51 54 56
95 100 90 87 84 92 77 58 47 42 39 35 40 42 42 44 51 65 72 66 61 58 55 53 53 59 70 73 72 69 70 76 86 94 98 100 98 95 87 74 63 55 52 53 52 53 54 54 58
80 97 96 92 97 83 83 68 40 46 58 50 40 49 47 47 52 61 72 73 70 66 62 60 63 62 60 59 59 62 66 74 81 84 87 90 85 76 65 56 52 55 55 53 57 59 62 64 66
Wind_Speed
20 20 16 5 3 1 4 7 2 6 5 6 4 4 7 2 6 5 12 16 34 36 32 27 24 23 19 16 22 20 16 22 24 24 25 25 24 21 20 19 19 20 20 20 20 19 17 16 16
22 19 11 3 4 5 5 5 15 10 6 8 5 2 3 3 1 8 14 31 38 36 32 28 26 22 19 18 23 21 19 22 24 26 27 25 23 21 18 19 20 20 21 20 20 18 16 15 14
21 22 5 5 8 14 6 7 7 6 13 6 5 1 3 4 5 14 18 33 37 35 33 29 26 22 20 20 23 22 20 23 24 25 25 22 21 20 18 19 19 19 19 21 20 18 16 15 17
7 7 5 5 19 19 9 7 7 9 6 3 3 6 3 2 10 11 32 35 37 34 32 29 26 22 20 20 21 22 20 20 23 24 21 20 19 18 18 18 18 18 20 20 18 16 16 15 15
9 4 3 6 19 22 5 4 9 9 11 9 1 2 3 4 8 28 34 33 33 34 31 29 26 23 20 20 19 21 19 18 20 21 21 18 18 18 18 18 17 17 18 17 16 15 16 15 13
5 3 4 11 20 11 7 6 7 9 17 13 6 4 2 5 26 29 31 28 30 34 30 29 26 24 20 20 19 18 20 19 19 20 20 18 19 18 18 18 16 16 16 16 14 13 13 12 11
6 5 5 5 23 2 9 9 9 8 14 13 8 3 2 7 22 29 31 28 30 32 29 27 26 23 21 21 20 17 18 20 21 22 22 20 20 19 18 18 17 14 15 15 13 12 10 10 9
2 3 15 6 4 4 5 4 10 18 17 5 7 5 4 3 25 31 30 32 29 30 28 27 25 22 21 22 21 19 18 19 21 22 22 21 20 19 18 17 16 14 15 14 13 10 9 7 6
1 1 4 11 6 7 3 6 1 5 10 4 17 6 5 25 27 30 27 25 25 26 26 25 23 21 21 24 20 20 18 18 19 20 21 21 21 19 18 17 16 15 14 13 11 9 8 6 5
3 4 6 6 9 6 4 5 10 7 6 8 11 8 21 26 27 22 20 21 21 22 24 25 21 20 21 25 23 21 21 19 18 19 20 19 18 18 17 15 14 13 12 11 10 8 7 6 4
5 5 3 9 5 11 4 2 3 15 5 7 23 21 19 21 29 21 19 26 21 20 22 24 21 21 20 22 26 23 23 21 19 18 19 18 17 16 15 14 13 11 10 9 8 7 6 5 4
5 6 17 4 6 5 4 2 4 4 2 9 22 23 18 15 10 19 19 20 31 23 23 25 22 24 21 21 25 26 23 25 22 21 19 19 18 16 14 13 12 10 9 7 6 5 5 5 4
4 5 14 15 13 4 4 3 5 5 7 12 24 25 18 13 18 27 24 24 25 24 24 27 25 25 23 21 24 27 26 25 24 22 20 18 18 16 14 12 11 10 8 8 6 5 4 3 2
5 12 17 14 8 11 5 4 2 6 7 8 19 21 23 21 15 24 23 24 29 23 22 25 26 27 26 24 24 26 28 26 24 24 21 19 18 16 13 12 10 9 8 8 7 5 3 3 3
5 5 14 9 11 7 9 6 6 7 5 6 6 11 13 17 17 18 21 25 26 29 19 24 30 29 28 26 24 25 26 27 26 24 21 20 18 16 13 12 11 9 8 8 8 7 5 5 5
5 5 6 12 17 4 4 4 6 9 9 9 6 4 7 15 22 20 22 29 21 28 29 17 23 32 31 30 27 24 25 25 25 23 23 21 18 15 14 13 12 10 10 10 9 7 6 5 4
4 2 3 9 12 6 9 3 6 7 8 8 8 5 2 4 10 22 28 30 34 37 31 25 29 31 33 34 29 26 24 25 24 22 23 22 20 18 16 15 13 12 12 12 10 9 7 6 6
5 2 5 5 7 10 10 8 8 7 7 6 6 7 5 1 6 12 24 31 38 33 31 37 35 33 28 31 29 26 25 25 24 23 23 23 22 20 20 19 17 16 14 13 12 11 9 7 6
2 4 4 4 5 7 7 8 8 7 8 8 6 5 5 6 1 8 13 25 31 36 33 34 34 28 29 19 22 26 26 27 26 26 26 26 25 24 23 22 20 19 18 16 15 14 14 11 8
3 5 4 8 12 7 10 6 9 5 5 5 6 7 6 4 5 4 8 20 28 33 37 39 37 38 40 38 28 26 33 32 29 23 26 28 28 28 26 23 23 22 20 20 19 17 12 9 9
1 4 4 4 8 1 7 3 6 6 5 11 9 8 5 8 8 6 8 15 21 24 28 31 32 36 38 36 34 33 28 28 25 25 23 25 28 32 28 27 24 22 20 20 16 14 11 8 8
1 3 2 7 4 0 3 1 5 10 9 13 14 9 9 8 6 6 8 13 18 22 24 24 28 29 30 30 32 31 28 25 29 30 27 26 26 28 28 27 25 23 20 20 13 13 8 9 11
2 2 5 4 3 2 2 0 4 9 10 21 17 10 8 9 9 9 9 20 23 20 20 21 22 21 22 24 25 26 27 22 24 22 19 21 23 23 23 23 25 22 19 15 10 7 6 12 12
4 5 7 5 2 2 6 4 3 5 13 12 17 11 9 9 9 9 17 21 20 18 20 19 20 22 21 20 22 23 24 24 21 19 16 16 20 20 20 19 18 15 12 5 4 12 15 14 12
3 4 1 0 2 3 3 4 7 4 5 6 9 10 10 8 7 8 9 11 19 20 21 23 20 19 18 17 18 19 19 18 18 17 16 16 16 19 18 16 13 13 12 12 16 12 10 10 10
3 5 4 5 3 2 1 6 6 5 5 6 8 7 4 5 7 9 10 18 24 23 21 20 22 20 18 18 18 17 16 15 15 16 16 16 17 17 15 15 16 16 14 13 10 9 7 7 9
2 2 3 6 2 2 4 6 8 8 9 6 7 4 4 4 5 8 7 14 21 20 19 21 22 19 16 15 14 14 14 15 15 14 15 14 13 16 17 17 16 13 12 9 6 4 4 7 9
3 5 3 2 3 4 3 4 5 4 5 3 5 3 3 4 5 5 1 5 6 11 15 15 16 16 14 14 14 13 11 11 11 11 12 13 17 20 20 17 13 9 6 5 5 4 5 6 8
2 2 1 3 3 4 1 5 5 5 5 5 7 1 4 4 4 5 6 7 3 5 8 11 12 14 14 13 12 11 10 10 9 9 10 14 19 19 17 13 11 8 7 5 3 4 6 7 9
2 3 4 3 3 2 3 5 2 5 7 6 2 5 2 3 3 4 6 6 5 7 8 11 13 14 13 12 10 10 10 11 12 12 14 16 17 16 15 14 12 9 4 2 3 5 6 7 7
Wind_Direction
251 242 209 145 167 156 232 242 145 144 159 217 169 155 191 120 168 200 151 153 157 153 155 154 147 147 141 142 140 128 123 139 140 139 133 131 126 128 123 121 120 120 120 118 114 110 108 106 104
247 230 203 136 197 170 235 231 187 200 170 175 136 110 133 190 116 125 133 157 155 153 155 153 152 147 142 142 142 130 122 129 137 137 134 131 129 126 126 124 124 124 124 122 118 115 108 101 102
250 227 192 176 199 204 215 188 196 157 139 170 136 83 136 155 157 144 152 152 153 153 155 154 152 145 142 139 142 138 136 129 127 128 127 132 130 128 129 128 127 127 126 125 122 117 106 103 105
251 200 197 215 190 216 190 189 184 140 121 38 224 126 73 112 150 153 153 151 152 156 155 152 151 145 143 141 142 145 142 134 135 133 136 132 129 132 132 130 130 129 129 127 122 119 108 108 109
230 250 211 186 191 207 207 223 177 180 144 172 236 64 75 356 155 147 150 151 149 155 154 153 154 149 146 148 142 148 144 136 138 143 140 135 133 133 132 131 129 129 132 129 125 121 112 108 112
232 132 323 165 212 193 197 191 169 174 181 181 347 16 182 156 139 147 144 148 152 155 156 157 157 154 153 155 146 147 146 148 145 143 140 140 137 137 134 131 128 129 133 134 130 122 116 112 109
234 216 121 267 206 233 186 158 152 150 155 178 130 270 207 136 147 148 146 147 154 157 158 159 158 159 157 161 158 150 147 147 147 147 149 148 145 140 136 134 133 129 136 143 141 133 123 118 107
104 271 197 246 167 225 215 109 142 155 177 62 106 236 185 176 142 145 148 151 155 159 162 162 161 164 166 167 166 157 149 148 151 153 155 152 148 143 138 136 135 139 144 147 150 147 141 132 120
85 264 223 154 267 224 255 133 35 99 127 83 156 210 212 148 145 138 139 146 151 161 165 166 164 170 175 174 165 166 159 152 152 156 157 155 152 149 145 144 141 143 146 149 154 155 151 149 147
92 276 162 196 230 281 220 153 130 125 149 144 152 116 129 152 143 135 141 156 156 157 163 168 167 170 173 176 175 171 167 164 160 156 157 156 156 153 150 149 147 149 153 155 158 161 163 161 161
110 339 311 216 263 257 208 139 174 142 179 172 157 155 164 143 141 129 164 164 163 162 162 169 171 173 178 183 183 179 178 175 170 164 159 158 157 158 158 159 160 163 169 173 176 182 183 178 170
132 4 306 299 297 227 205 142 65 60 1 147 150 155 159 149 158 144 188 177 156 172 173 181 181 179 184 186 188 188 186 182 178 175 169 167 166 163 165 166 167 171 176 179 185 187 191 177 192
126 285 309 325 300 41 163 54 142 31 336 145 137 146 160 159 162 171 178 171 157 167 184 190 187 187 190 191 193 193 193 192 188 186 180 178 177 173 174 173 178 178 181 182 176 178 180 196 225
108 315 328 308 289 52 59 30 89 349 340 166 151 161 160 173 178 149 170 179 158 172 190 199 196 192 196 198 199 200 200 199 199 194 191 188 185 182 185 186 184 180 185 182 187 198 209 232 258
128 332 341 334 333 41 333 21 30 316 333 63 100 147 153 163 166 181 173 170 170 182 211 213 208 200 202 204 205 205 206 205 205 204 199 199 197 200 199 195 199 195 197 201 202 209 222 234 260
104 57 340 321 349 12 342 105 11 8 31 21 26 89 158 160 171 183 180 172 186 179 200 223 239 211 204 208 208 209 210 209 211 209 206 208 210 211 213 214 214 209 214 220 219 215 217 225 235
190 181 234 336 332 349 13 99 349 21 26 25 9 355 62 168 149 176 177 181 186 196 187 219 233 220 211 212 209 210 211 210 210 207 208 211 215 219 220 222 222 220 216 222 220 221 223 236 247
178 218 159 116 277 35 17 1 333 11 17 352 340 339 326 128 185 195 177 175 188 192 194 202 213 219 213 213 213 210 216 211 210 212 216 219 219 220 220 223 222 215 212 215 216 220 221 230 245
180 166 145 252 204 51 333 321 321 328 345 339 327 309 324 295 127 209 178 187 198 209 216 220 209 217 234 223 212 211 219 220 217 223 227 227 225 224 221 222 216 211 214 217 218 215 219 227 241
150 161 162 179 175 140 193 291 282 324 292 265 275 278 269 287 302 258 193 187 197 201 208 212 211 213 220 217 225 230 217 221 219 225 225 231 234 231 226 222 217 215 220 219 218 217 223 240 243
60 165 238 159 155 36 120 283 263 283 294 289 265 234 217 234 261 264 234 213 207 208 211 214 211 213 217 216 217 221 223 220 217 223 226 230 237 234 231 227 222 222 218 221 223 229 234 262 271
143 256 181 115 101 232 205 230 189 220 218 261 260 234 222 230 242 252 246 238 215 219 220 219 216 218 222 224 218 225 228 226 225 230 233 237 232 235 236 233 225 220 227 225 223 238 257 257 273
176 40 138 128 108 121 150 267 281 177 216 237 236 245 225 206 216 239 226 240 238 231 225 224 227 234 234 226 231 236 237 235 242 246 249 247 234 232 233 230 229 231 230 220 216 240 245 278 293
158 60 52 56 46 226 200 172 252 191 220 230 246 245 228 214 205 224 238 238 241 244 243 234 222 224 235 234 233 233 243 243 246 252 241 242 232 225 229 232 225 211 199 201 228 236 258 267 270
101 104 63 195 216 222 317 180 253 190 236 245 233 240 228 225 227 204 204 214 226 232 235 233 229 222 225 227 230 229 237 244 249 251 251 239 232 224 225 214 194 180 177 201 218 230 243 266 277
178 161 155 193 193 220 135 229 247 235 257 231 246 227 212 257 264 246 201 199 214 219 224 227 225 224 220 224 231 235 239 243 245 246 247 244 237 230 210 201 191 178 178 195 216 218 251 250 263
189 181 166 107 118 80 221 289 295 261 269 274 274 231 260 308 293 238 217 208 210 213 219 224 217 223 224 222 225 229 234 244 246 247 242 233 216 195 187 183 178 176 182 194 209 242 240 272 282
205 174 102 119 219 184 268 275 242 328 279 277 295 245 124 38 10 357 42 223 217 231 225 216 212 218 215 210 212 217 221 224 230 227 220 212 193 186 179 182 182 182 189 211 231 251 277 287 288
152 207 312 136 153 177 238 259 222 269 286 264 252 282 72 68 32 17 18 36 127 189 203 200 196 195 189 195 201 205 208 207 200 196 191 188 182 181 178 176 169 169 180 201 253 306 298 297 298
162 289 218 165 183 90 140 268 320 282 283 257 188 135 89 38 65 44 39 55 104 142 159 175 178 187 192 192 194 192 190 186 181 177 174 172 168 166 169 167 164 172 179 210 287 296 300 295 287